Date,TemperatureHighF,TemperatureAvgF,TemperatureLowF,DewpointHighF,DewpointAvgF,DewpointLowF,HumidityHigh,HumidityAvg,HumidityLow,PressureMaxIn,PressureMinIn,WindSpeedMaxMPH,WindSpeedAvgMPH,GustSpeedMaxMPH,PrecipitationSumIn
2013-1-1,46.7,41.3,36.2,43.9,35.5,28.1,90,80,72,30.32,30.05,6,3,12,0.00
2013-1-2,41.6,35.7,29.0,29.6,28.2,25.6,87,74,61,30.38,30.27,4,2,7,0.00
2013-1-3,49.6,35.8,27.6,32.0,27.9,24.5,89,74,47,30.49,30.35,6,0,8,0.00
2013-1-4,50.7,44.8,39.6,36.5,32.3,30.4,73,62,46,30.54,30.38,1,0,3,0.00
2013-1-5,53.4,44.7,37.2,39.4,36.9,33.8,88,75,57,30.38,30.21,4,1,9,0.00
2013-1-6,56.9,42.1,31.6,33.9,28.7,25.0,90,64,30,30.42,30.30,5,1,8,0.00
2013-1-7,56.5,41.8,27.2,35.2,30.5,23.8,88,67,42,30.36,30.11,3,0,5,0.00
2013-1-8,49.0,47.4,44.4,46.8,41.5,33.8,95,81,60,30.12,29.97,3,0,6,1.07
2013-1-9,56.8,53.5,47.6,54.8,51.5,45.4,93,93,92,30.13,29.91,4,1,11,1.02
2013-1-10,59.9,55.0,50.8,55.0,49.4,44.7,93,82,63,29.99,29.90,5,2,7,0.41
2013-1-11,71.4,60.0,48.2,61.1,50.0,43.1,86,71,49,29.94,29.75,6,3,14,0.00
2013-1-12,66.2,55.2,37.0,63.2,50.9,30.1,93,85,71,29.97,29.67,8,3,14,0.11
2013-1-13,43.4,36.5,31.9,29.9,23.9,19.6,76,61,45,30.31,29.96,9,5,15,0.03
2013-1-14,46.0,36.0,29.6,27.3,21.5,17.7,68,56,39,30.37,30.24,6,2,10,0.00
2013-1-15,38.8,35.2,30.3,30.1,26.0,20.2,87,70,53,30.26,30.18,6,3,10,0.07
2013-1-16,49.9,37.1,26.4,29.0,21.5,17.7,76,56,31,30.33,30.18,3,1,6,0.00
2013-1-17,60.4,45.2,31.7,33.8,30.4,25.7,81,59,33,30.51,30.27,6,1,8,0.00
2013-1-18,62.5,46.8,30.8,37.3,32.6,27.6,89,62,33,30.52,30.27,5,1,10,0.00
2013-1-19,66.8,52.7,40.5,45.4,40.7,34.5,86,65,42,30.27,30.14,6,2,13,0.00
2013-1-20,70.7,51.8,36.8,46.8,39.7,34.4,91,68,30,30.22,30.06,2,0,6,0.00
2013-1-21,56.3,46.4,39.4,41.1,31.6,25.4,88,58,39,30.32,30.12,7,2,10,0.00
2013-1-22,66.4,50.8,35.6,47.2,38.3,27.1,85,63,47,30.33,30.17,4,1,5,0.00
2013-1-23,74.8,62.1,49.2,55.3,51.4,45.2,87,69,49,30.27,30.11,5,2,9,0.00
2013-1-24,80.1,64.3,54.1,58.9,53.5,45.2,89,70,45,30.17,30.00,4,1,7,0.00
2013-1-25,55.5,49.7,46.5,47.7,42.3,38.4,90,76,66,30.21,30.02,5,2,10,0.00
2013-1-26,53.9,49.8,45.4,48.3,44.5,38.3,90,82,67,30.23,30.10,2,0,4,0.00
2013-1-27,75.5,63.6,50.6,62.6,56.5,48.1,93,79,56,30.10,29.90,8,3,17,0.00
2013-1-28,78.3,72.4,67.6,65.4,63.3,61.4,85,74,57,29.98,29.81,9,4,19,0.00
2013-1-29,79.7,67.5,54.6,65.9,58.0,29.1,89,73,34,29.82,29.41,10,5,19,0.43
2013-1-30,55.5,47.8,35.7,36.3,26.8,17.4,68,46,26,30.15,29.67,9,4,16,0.00
2013-1-31,69.9,51.2,34.3,29.6,24.4,19.5,71,40,15,30.33,30.08,5,2,9,0.00
2013-2-1,60.8,45.9,30.9,39.1,27.2,18.2,68,49,33,30.41,30.16,6,2,7,0.00
2013-2-2,67.2,55.5,44.9,44.9,37.4,29.8,78,53,26,30.33,30.14,6,2,9,0.00
2013-2-3,71.4,54.3,35.1,39.1,30.8,24.0,86,48,18,30.33,29.98,4,1,7,0.00
2013-2-4,73.0,62.6,54.5,56.7,49.1,26.6,86,63,27,29.98,29.77,5,2,12,0.02
2013-2-5,68.8,61.7,57.3,60.0,57.3,53.5,92,86,68,30.00,29.86,3,0,4,0.01
2013-2-6,76.2,64.3,55.8,61.6,56.6,53.0,91,78,47,30.00,29.83,5,2,11,0.00
2013-2-7,81.1,65.7,55.7,59.3,53.1,39.9,89,67,26,30.10,29.78,9,4,13,0.00
2013-2-8,65.4,53.6,43.4,44.3,32.4,17.1,75,49,16,30.25,30.10,7,2,8,0.00
2013-2-9,60.0,51.9,46.8,57.4,46.0,35.3,91,80,62,30.13,29.74,5,2,13,0.00
2013-2-10,68.6,59.0,46.2,63.4,37.7,20.5,91,52,17,30.01,29.63,8,2,14,0.94
2013-2-11,56.9,52.1,46.7,39.9,33.6,26.8,72,50,32,30.16,29.99,4,1,6,0.00
2013-2-12,49.3,47.7,42.9,46.7,43.4,37.8,91,85,72,30.05,29.85,6,1,8,0.30
2013-2-13,57.8,44.8,39.6,37.9,35.6,34.0,82,71,44,30.17,30.04,6,2,10,0.00
2013-2-14,70.3,52.8,36.6,41.2,35.5,30.2,88,57,24,30.11,29.99,2,0,7,0.01
2013-2-15,53.2,47.4,36.7,39.8,27.8,16.4,72,48,26,30.40,30.09,7,3,11,0.00
2013-2-16,58.0,44.0,29.5,29.1,25.2,22.2,75,50,27,30.43,30.18,3,0,5,0.00
2013-2-17,71.7,55.5,36.1,45.6,33.1,26.9,79,47,19,30.18,29.90,9,4,16,0.00
2013-2-18,78.4,63.1,51.9,56.6,42.9,29.2,77,51,24,30.12,29.75,8,5,18,0.00
2013-2-19,62.8,53.0,39.7,32.7,25.8,19.7,66,37,20,30.33,30.12,3,0,7,0.01
2013-2-20,53.1,45.8,42.8,41.4,37.2,30.6,85,72,42,30.18,29.79,4,1,16,0.16
2013-2-21,69.3,53.7,43.4,50.5,37.9,22.6,90,61,17,29.94,29.60,7,2,14,0.21
2013-2-22,48.7,40.2,32.0,37.9,26.5,21.3,75,59,38,30.16,29.93,7,3,11,0.00
2013-2-23,56.4,42.4,30.8,31.0,27.6,24.5,79,58,34,30.12,29.93,5,1,8,0.00
2013-2-24,70.6,54.1,33.7,44.4,37.0,28.5,82,56,31,29.93,29.60,6,2,11,0.00
2013-2-25,61.6,52.1,41.2,50.1,39.2,28.0,83,63,34,29.69,29.46,10,4,19,0.02
2013-2-26,59.7,47.5,40.6,33.3,31.6,28.9,70,55,33,29.90,29.69,9,4,13,0.00
2013-2-27,58.0,46.9,37.0,33.7,26.6,16.1,79,50,20,30.25,29.89,8,4,13,0.00
2013-2-28,60.0,47.5,37.0,28.4,25.0,20.5,68,44,23,30.32,30.18,8,3,15,0.00
2013-3-1,57.5,45.2,34.1,31.2,27.8,24.7,72,52,33,30.32,30.19,7,2,13,0.00
2013-3-2,56.5,43.0,32.1,28.1,24.3,20.0,73,50,26,30.46,30.25,8,3,12,0.00
2013-3-3,72.2,56.4,38.6,41.0,29.6,23.2,62,38,22,30.24,29.79,9,4,16,0.00
2013-3-4,88.7,73.8,55.7,48.4,40.0,26.2,65,34,11,29.78,29.56,10,4,13,0.00
2013-3-5,62.2,51.2,41.1,42.8,23.4,12.5,62,36,17,30.38,29.78,12,6,22,0.00
2013-3-6,62.8,48.6,34.2,25.0,19.5,6.5,64,35,11,30.47,30.21,2,0,4,0.00
2013-3-7,72.7,57.3,38.6,37.6,26.4,18.0,60,33,13,30.24,30.08,8,2,12,0.00
2013-3-8,63.4,59.7,55.3,56.0,50.9,38.4,82,73,47,30.17,29.98,5,2,11,0.01
2013-3-9,69.3,65.1,61.2,64.4,59.5,54.5,91,82,76,29.98,29.63,9,4,15,1.25
2013-3-10,61.8,52.2,40.1,59.1,39.2,29.4,92,63,43,30.10,29.70,9,4,19,0.05
2013-3-11,61.8,46.6,35.6,32.1,25.2,15.8,80,49,18,30.15,30.01,6,2,12,0.00
2013-3-12,69.5,54.0,37.5,32.3,27.4,22.8,70,40,19,30.32,30.04,4,1,8,0.00
2013-3-13,70.9,56.4,41.1,39.0,34.7,30.5,79,48,25,30.44,30.30,3,0,7,0.00
2013-3-14,78.9,62.2,45.1,44.9,40.4,34.9,74,47,28,30.35,30.15,7,2,16,0.00
2013-3-15,82.5,69.0,55.7,53.8,46.6,39.6,81,49,22,30.15,29.86,10,4,20,0.00
2013-3-16,82.5,70.8,59.1,57.6,53.2,46.7,78,55,41,29.86,29.66,10,6,18,0.00
2013-3-17,74.3,67.9,58.7,60.1,53.8,47.3,80,62,44,29.78,29.65,10,2,12,0.00
2013-3-18,69.8,63.5,58.0,61.8,48.2,38.2,86,59,41,30.00,29.62,8,3,14,0.00
2013-3-19,70.5,59.4,47.6,44.3,37.8,31.6,71,47,32,30.12,29.95,3,0,6,0.00
2013-3-20,69.3,58.0,46.0,37.4,31.8,25.2,67,40,19,30.30,30.03,6,1,10,0.00
2013-3-21,70.2,62.3,52.9,57.8,42.5,27.5,74,49,33,30.03,29.54,11,4,20,0.00
2013-3-22,67.0,54.9,47.4,60.0,48.7,42.5,87,80,66,29.85,29.54,8,3,13,0.00
2013-3-23,54.6,50.7,47.0,49.8,46.4,43.2,90,85,80,29.89,29.67,7,1,11,0.12
2013-3-24,53.9,46.3,39.2,47.0,28.4,17.9,88,53,30,30.20,29.84,11,6,20,0.00
2013-3-25,55.9,44.3,32.6,23.4,18.7,11.7,63,38,18,30.42,30.19,8,3,13,0.00
2013-3-26,60.5,45.2,29.7,27.0,21.8,17.5,77,44,20,30.53,30.30,3,0,9,0.00
2013-3-27,71.0,57.6,41.6,43.1,31.9,21.9,54,39,25,30.32,30.07,10,4,17,0.00
2013-3-28,71.5,63.0,52.6,56.7,51.3,42.5,79,66,54,30.21,30.06,7,3,13,0.00
2013-3-29,78.8,68.3,61.2,57.8,56.2,54.9,80,66,46,30.17,29.99,7,4,16,0.00
2013-3-30,78.2,68.0,55.4,63.0,58.8,52.2,91,74,56,30.11,29.86,6,2,11,0.63
2013-3-31,76.5,68.3,59.8,62.2,56.6,48.4,87,68,45,29.97,29.78,6,2,12,0.00
2013-4-1,81.7,66.3,50.9,56.5,48.6,43.4,89,59,26,30.06,29.91,2,0,7,0.00
2013-4-2,69.5,65.6,54.2,62.2,57.9,43.1,88,76,58,30.00,29.88,6,1,8,0.09
2013-4-3,54.7,48.9,43.9,48.0,45.0,41.1,90,87,67,30.16,29.92,7,1,8,0.88
2013-4-4,51.5,46.5,42.6,41.7,40.6,39.3,91,80,67,30.22,30.13,5,2,12,0.02
2013-4-5,69.7,54.9,39.6,48.9,43.0,36.0,89,67,40,30.26,30.03,3,1,5,0.00
2013-4-6,76.6,65.9,56.7,57.7,51.8,44.3,74,61,49,30.03,29.81,10,5,15,0.00
2013-4-7,74.4,68.3,63.0,61.5,59.1,55.7,81,73,63,29.89,29.72,8,4,16,0.00
2013-4-8,76.3,71.8,66.8,65.0,62.1,58.1,78,72,67,29.74,29.63,9,5,17,0.00
2013-4-9,82.1,75.3,69.2,67.0,64.3,62.0,82,69,57,29.68,29.58,10,4,18,0.00
2013-4-10,75.1,47.8,39.8,67.1,42.1,34.4,89,81,62,30.00,29.67,8,4,16,0.20
2013-4-11,64.8,50.2,40.7,39.7,33.2,27.9,76,55,30,29.99,29.82,6,1,9,0.00
2013-4-12,79.3,61.2,42.2,47.8,42.8,36.8,85,55,26,30.00,29.86,4,0,6,0.00
2013-4-13,79.2,67.8,52.8,50.7,47.0,42.3,79,49,30,29.99,29.76,5,1,12,0.00
2013-4-14,83.8,70.6,54.9,65.1,57.6,47.6,81,64,50,29.76,29.52,7,3,15,0.00
2013-4-15,88.6,78.0,70.1,67.3,65.5,64.0,84,67,45,29.72,29.57,8,4,17,0.00
2013-4-16,89.1,79.2,72.3,68.7,65.5,62.8,80,64,46,29.87,29.73,7,3,13,0.00
2013-4-17,86.3,78.7,73.6,69.7,67.5,65.7,85,70,52,29.85,29.59,9,5,20,0.00
2013-4-18,77.5,59.0,46.1,70.2,46.5,33.8,87,64,46,30.16,29.51,11,6,20,1.48
2013-4-19,65.7,51.2,39.5,38.9,30.5,21.1,79,50,21,30.30,30.14,7,2,12,0.00
2013-4-20,73.2,59.8,47.3,38.8,32.3,25.2,62,38,18,30.20,30.00,8,2,13,0.00
2013-4-21,72.7,61.5,49.9,50.2,45.6,34.3,78,57,39,30.20,30.05,4,1,11,0.00
2013-4-22,80.3,68.1,54.8,57.9,53.0,46.2,80,60,44,30.09,29.82,7,2,13,0.00
2013-4-23,70.1,55.6,42.5,61.2,48.6,37.1,86,77,64,30.20,29.77,7,4,14,0.01
2013-4-24,62.7,50.0,38.4,39.2,35.0,31.2,84,59,34,30.33,30.20,7,3,12,0.06
2013-4-25,75.5,63.0,50.6,44.7,39.7,34.1,62,44,25,30.34,30.13,3,0,6,0.00
2013-4-26,78.6,68.6,61.8,65.6,55.1,43.0,78,63,45,30.16,29.95,6,1,13,0.00
2013-4-27,75.6,69.3,59.3,65.6,59.0,53.1,87,71,50,30.11,29.97,5,2,9,0.00
2013-4-28,83.7,67.7,52.8,64.4,58.3,49.0,89,74,49,30.03,29.83,2,0,5,0.00
2013-4-29,86.5,75.4,62.6,66.7,60.1,54.4,87,62,35,29.88,29.75,5,2,11,0.00
2013-4-30,84.2,72.5,59.8,64.2,60.5,55.0,87,67,48,29.81,29.71,5,1,13,0.00
2013-5-1,82.8,73.5,67.0,65.9,63.6,61.4,86,72,52,29.93,29.75,3,1,6,0.00
2013-5-2,71.3,52.9,44.4,61.8,44.6,34.6,82,73,62,30.35,29.91,10,6,18,0.00
2013-5-3,67.1,53.3,39.5,35.5,30.4,23.7,75,47,20,30.33,30.03,10,4,17,0.00
2013-5-4,75.3,58.5,40.0,41.5,32.6,19.8,85,46,16,30.03,29.89,9,2,13,0.00
2013-5-5,70.9,58.5,46.8,46.7,41.6,38.1,74,55,38,30.16,30.02,5,2,12,0.00
2013-5-6,79.8,64.6,48.2,54.1,49.3,43.9,88,61,36,30.12,29.98,3,0,6,0.00
2013-5-7,86.6,72.7,56.3,57.6,52.7,48.3,87,54,28,30.05,29.90,3,0,10,0.00
2013-5-8,86.5,76.5,63.8,58.8,54.4,50.1,69,48,32,29.96,29.83,7,3,11,0.00
2013-5-9,77.5,69.6,66.1,66.7,62.5,54.8,90,79,48,29.96,29.82,7,2,8,0.30
2013-5-10,83.4,73.0,66.0,66.4,62.1,55.9,92,72,45,30.03,29.85,3,1,8,0.00
2013-5-11,82.4,71.3,61.6,57.0,51.0,41.1,81,52,26,30.15,30.01,8,2,13,0.00
2013-5-12,80.4,68.9,57.9,53.1,40.3,31.1,74,39,17,30.26,30.12,1,0,3,0.00
2013-5-13,88.8,73.6,59.3,51.5,46.2,40.8,57,40,22,30.22,30.08,5,2,8,0.00
2013-5-14,87.5,76.1,61.6,60.4,55.1,50.3,77,51,29,30.13,29.94,7,2,14,0.00
2013-5-15,76.6,73.2,64.0,68.8,65.8,60.5,90,78,60,30.01,29.73,7,4,19,1.53
2013-5-16,82.9,72.0,62.7,70.6,65.7,60.0,91,81,65,29.81,29.71,7,2,13,0.01
2013-5-17,91.6,81.4,74.1,72.4,71.0,69.1,88,72,53,29.82,29.74,8,2,11,0.00
2013-5-18,93.4,83.3,74.0,72.5,69.7,66.8,81,65,47,29.85,29.71,8,4,13,0.00
2013-5-19,90.7,81.9,72.1,70.6,67.6,64.6,81,63,50,29.80,29.62,10,6,20,0.00
2013-5-20,90.5,82.2,75.5,70.8,68.8,65.9,78,65,50,29.78,29.60,9,5,16,0.00
2013-5-21,83.0,73.0,61.3,70.4,65.2,56.9,89,77,59,29.86,29.61,8,4,16,0.67
2013-5-22,88.0,71.2,55.2,64.7,57.8,52.2,91,67,30,29.94,29.82,1,0,2,0.01
2013-5-23,87.8,79.0,68.7,73.2,68.9,61.0,88,72,56,30.02,29.85,4,1,9,0.00
2013-5-24,85.4,78.3,68.1,72.7,69.3,63.0,87,75,61,30.15,29.96,6,1,10,0.13
2013-5-25,83.1,72.8,67.6,72.9,67.5,64.1,91,84,63,30.15,30.01,6,1,10,0.49
2013-5-26,88.0,79.0,72.2,74.3,69.8,68.3,90,74,56,30.05,29.89,6,3,16,0.06
2013-5-27,86.9,79.6,72.8,69.5,67.9,66.6,82,68,54,29.95,29.75,7,4,16,0.00
2013-5-28,86.2,80.2,73.6,69.0,67.0,65.5,79,65,53,29.86,29.72,9,5,17,0.00
2013-5-29,85.8,77.5,71.5,71.7,69.4,66.8,89,76,61,29.78,29.66,12,4,14,0.33
2013-5-30,89.5,81.5,74.9,72.1,70.5,68.9,83,70,54,29.76,29.65,9,5,18,0.01
2013-5-31,91.2,83.5,77.8,73.5,71.9,70.6,81,69,52,29.80,29.63,8,5,20,0.00
2013-6-1,89.7,80.6,73.3,73.1,70.6,66.5,85,72,57,29.91,29.67,9,4,20,0.06
2013-6-2,84.8,75.5,65.9,68.6,56.8,48.0,85,55,29,30.06,29.91,5,1,10,0.00
2013-6-3,92.1,77.2,61.6,61.5,58.2,55.0,85,56,30,29.98,29.80,2,0,5,0.00
2013-6-4,93.5,82.6,72.4,69.8,66.0,60.6,77,59,42,29.95,29.74,6,2,12,0.00
2013-6-5,92.9,83.3,74.4,71.0,67.5,64.5,80,60,40,29.90,29.71,5,1,8,0.00
2013-6-6,79.3,73.8,69.0,70.9,67.0,64.2,91,80,64,29.93,29.77,4,1,9,0.76
2013-6-7,86.2,74.4,62.8,64.2,58.6,53.5,90,62,33,30.00,29.86,3,0,8,0.01
2013-6-8,89.9,77.3,62.3,62.3,59.4,57.2,88,57,36,29.92,29.75,5,1,10,0.00
2013-6-9,90.8,79.8,69.1,70.0,67.0,60.6,90,67,46,29.92,29.82,9,2,11,0.64
2013-6-10,99.7,85.0,69.7,71.4,64.8,54.7,87,56,23,29.93,29.85,4,1,9,0.00
2013-6-11,94.0,85.6,76.8,73.7,69.5,63.6,82,60,42,29.99,29.88,5,2,12,0.00
2013-6-12,95.5,85.8,76.4,72.5,69.7,65.4,84,61,41,30.02,29.88,5,2,10,0.00
2013-6-13,99.8,88.2,76.1,71.7,68.3,64.9,77,54,34,30.02,29.84,3,1,11,0.00
2013-6-14,98.2,87.1,76.0,72.6,69.0,64.7,77,57,35,29.95,29.84,2,0,3,0.00
2013-6-15,91.5,83.8,74.2,74.7,71.6,68.9,88,68,54,29.97,29.84,3,0,6,0.04
2013-6-16,97.6,86.7,74.2,72.5,69.2,65.5,86,59,37,29.98,29.82,4,1,7,0.00
2013-6-17,96.0,83.5,69.5,75.6,70.9,65.2,90,67,46,30.00,29.80,8,1,13,0.82
2013-6-18,87.4,77.8,70.1,74.1,69.6,66.0,89,77,53,29.98,29.84,6,0,11,0.16
2013-6-19,94.3,81.2,70.2,75.6,70.5,66.3,90,72,50,29.96,29.82,5,0,13,0.01
2013-6-20,95.9,86.2,77.9,71.8,68.9,64.8,79,58,37,30.00,29.88,6,2,12,0.00
2013-6-21,96.4,87.2,78.0,72.9,68.1,63.1,79,55,34,30.03,29.91,6,2,12,0.00
2013-6-22,96.8,86.9,76.0,72.2,67.9,64.8,78,55,37,30.00,29.83,6,3,15,0.00
2013-6-23,96.0,87.3,78.3,71.6,68.0,63.9,78,55,36,29.95,29.83,6,3,11,0.00
2013-6-24,96.4,87.2,77.6,71.7,67.7,63.9,79,54,35,29.99,29.83,6,3,14,0.00
2013-6-25,97.8,88.5,78.6,72.3,67.5,62.6,76,52,33,29.95,29.78,8,4,19,0.00
2013-6-26,98.8,88.6,77.8,71.5,69.2,63.9,77,54,39,29.92,29.80,8,4,18,0.00
2013-6-27,101.6,90.5,79.7,73.2,69.2,64.7,75,52,31,29.98,29.81,5,2,14,0.00
2013-6-28,104.5,90.5,78.3,69.4,65.4,61.9,64,46,27,29.90,29.76,4,1,13,0.00
2013-6-29,98.9,87.2,74.5,70.7,63.5,55.2,80,49,24,29.86,29.75,5,1,8,0.00
2013-6-30,93.3,83.6,73.2,66.4,58.3,53.3,75,45,28,29.91,29.78,5,1,10,0.00
2013-7-1,88.7,78.9,68.4,60.7,56.7,52.6,73,48,31,30.00,29.91,6,2,15,0.00
2013-7-2,89.8,78.4,65.4,59.4,53.4,46.1,73,46,23,30.06,29.97,5,1,9,0.00
2013-7-3,92.8,78.9,63.0,60.9,53.0,41.4,81,46,17,30.03,29.91,1,0,8,0.00
2013-7-4,96.9,83.9,71.3,63.5,57.9,48.7,70,44,20,29.97,29.84,3,1,8,0.00
2013-7-5,98.2,86.2,73.0,65.2,59.7,51.6,71,43,24,29.97,29.81,3,0,9,0.00
2013-7-6,99.0,87.1,73.7,67.4,61.4,54.8,70,44,25,29.91,29.80,3,1,6,0.00
2013-7-7,99.1,88.1,74.5,70.8,65.6,60.4,72,49,32,29.96,29.86,2,0,7,0.00
2013-7-8,98.9,87.3,78.5,73.6,69.6,61.3,77,58,35,30.04,29.93,6,2,9,0.00
2013-7-9,101.3,89.7,79.2,72.3,64.6,57.0,77,47,24,30.08,29.92,5,2,10,0.00
2013-7-10,104.3,93.0,81.9,72.0,66.5,60.1,70,45,25,30.01,29.84,4,1,11,0.00
2013-7-11,105.4,90.4,82.3,74.2,68.4,63.0,67,50,28,29.93,29.82,4,1,9,0.01
2013-7-12,103.1,89.1,75.6,72.2,68.6,63.7,84,55,28,29.93,29.82,2,0,6,0.00
2013-7-13,103.2,90.9,81.2,70.4,67.0,58.7,69,48,30,29.95,29.81,2,0,9,0.00
2013-7-14,84.8,73.9,69.3,69.6,64.6,57.4,90,75,40,29.99,29.85,2,0,5,0.31
2013-7-15,74.1,70.8,67.9,71.6,68.2,65.2,92,92,90,30.06,29.94,0,0,1,0.75
2013-7-16,89.6,77.1,70.8,74.4,71.0,68.4,93,83,54,30.18,30.05,3,0,7,0.10
2013-7-17,90.9,78.0,71.5,76.2,71.4,68.1,92,81,51,30.20,30.10,4,0,7,0.08
2013-7-18,95.6,82.2,71.5,75.9,70.5,67.1,92,71,42,30.16,29.97,2,0,8,0.01
2013-7-19,96.8,84.4,74.4,73.0,70.0,64.9,86,64,36,30.01,29.88,5,0,6,0.00
2013-7-20,97.6,84.0,75.8,72.9,69.7,63.9,82,64,35,29.95,29.81,3,0,6,0.00
2013-7-21,97.6,86.4,75.9,74.0,70.7,66.5,84,62,38,29.89,29.79,5,2,9,0.00
2013-7-22,99.4,88.2,78.4,74.3,71.7,67.8,84,61,37,29.93,29.80,5,3,16,0.00
2013-7-23,99.8,89.9,79.9,75.7,71.7,64.6,80,57,38,29.92,29.77,5,3,11,0.00
2013-7-24,98.9,87.2,77.6,72.5,69.0,65.0,75,56,34,30.02,29.81,5,1,12,0.00
2013-7-25,97.4,86.5,75.8,74.6,70.8,66.5,79,61,42,30.01,29.92,4,0,8,0.00
2013-7-26,96.9,84.9,78.3,77.8,72.0,69.0,86,66,43,29.98,29.82,6,1,10,0.16
2013-7-27,92.5,82.1,74.0,72.2,66.0,60.0,79,61,34,29.99,29.86,3,1,8,0.00
2013-7-28,94.8,82.3,68.6,71.5,67.2,64.2,88,63,39,29.96,29.83,2,0,9,0.00
2013-7-29,98.0,87.5,79.3,74.6,70.3,62.0,80,59,35,29.95,29.86,6,2,10,0.00
2013-7-30,100.4,89.4,79.6,72.3,68.5,61.9,76,52,33,30.04,29.89,7,3,12,0.00
2013-7-31,104.3,91.8,80.8,71.9,68.2,63.2,68,48,32,30.02,29.85,4,1,11,0.00
2013-8-1,104.5,92.3,79.8,74.9,70.4,65.1,78,52,29,29.95,29.82,2,0,4,0.00
2013-8-2,104.0,93.0,80.8,70.2,67.1,62.1,70,45,28,29.90,29.80,4,2,11,0.00
2013-8-3,102.7,91.5,81.1,70.8,66.3,61.4,68,46,28,29.96,29.87,4,2,12,0.00
2013-8-4,103.0,91.6,81.6,72.7,68.0,63.1,72,48,28,30.02,29.87,4,2,11,0.00
2013-8-5,103.7,92.4,81.8,70.4,66.0,61.1,68,44,27,29.96,29.78,4,2,11,0.00
2013-8-6,104.8,92.8,80.7,70.8,65.3,58.6,70,43,26,29.86,29.73,5,2,10,0.00
2013-8-7,106.1,93.4,81.2,71.5,66.7,61.9,70,44,25,29.84,29.70,6,3,13,0.00
2013-8-8,103.2,92.5,81.7,72.6,66.3,60.7,72,45,27,29.84,29.71,5,2,13,0.00
2013-8-9,104.7,91.5,81.9,71.6,65.6,57.5,67,45,22,29.92,29.77,6,1,11,0.00
2013-8-10,99.1,87.5,77.7,75.1,70.6,65.6,84,60,36,30.02,29.91,5,1,8,0.00
2013-8-11,104.1,89.8,76.8,72.2,68.1,63.6,78,52,28,30.03,29.89,3,0,3,0.00
2013-8-12,92.4,79.5,79.7,71.8,60.7,-99.9,73,60,49,30.01,29.96,4,-54,8,0.00
2013-8-18,-200.0,0.0,200.0,-99.9,-99.9,-99.9,0,0,100,30.07,29.95,0,-999,0,0.00
2013-8-19,93.8,18.0,92.3,56.8,-69.7,-99.9,30,6,28,30.07,29.98,4,-805,10,0.00